Starlink 11256

operational
NORAD ID: 60904 Int'l Des: 2024-154 Owner: SPXS Country: US Constellation: starlink
LEOCIRCULAR

Starlink 11256について

説明を読み込み中...

リアルタイム位置

3D地球を読み込み中...

次回通過

高度履歴

Altitude vs Time

uPlot chart will show altitude changes over time

軌道要素

1 60904U 24154B 25349.93257552 -.00000363 00000-0 18609-5 0 9998
2 60904 53.1586 183.8479 0000786 27.7832 332.3228 15.69722554 75369
Epoch: Dec 15, 2025 • Age: 19 hours

現在のステータス

高度 368.9 km
速度 7.69 km/s
衛星直下点 -28.68°S, 33.77°E
打ち上げ日 Aug 31, 2024
運用期間 1.2 years
タイプ internet

技術仕様

分類 Payload
質量 960.00 kg
乾燥質量 910.00 kg
総質量 960.00 kg
長さ 0.30 m
直径 4.10 m
スパン 29.00 m
形状 Box + pan
製造者 SPXS
バスタイプ Starlink V2MD
フェーズステータス In Orbit
所有者/国 SPXS/US

大規模コンステレーション

Loading constellations...